Kezdőlap
METAR-TAF:

METAR-TAF

Repülőterek :

Granite Falls Municipal Airport (Lenzen-Roe Memorial Field)

Granite Falls, Minnesota, Amerikai Egyesült Államok

földrajzi szélesség: 44-45-11N, földrajzi hosszúság: 095-33-21W, magasság: 319 m

Jelenlegi meteorológiai megfigyelések

A jelentés 16 perccel ezelõtt készült, 15:55 UTC
Kelet-délkeleti szél 11 kt
Hőmérséklet 9°C
Páratartalom 81%
Légköri nyomás 1011 hPa
Látótávolság: 11.3 km
Borult 3800 lábon

METAR: KGDB 061555Z AUTO 12011KT 7SM OVC038 09/06 A2985 RMK AO2 T00890062

Idő: 11:11 (16:11 UTC)


TAF: hiányzik

Meteorológiai megfigyelések és előrejelzések több, mint 4000 repülőtéren (METAR és TAF jelentéseket).

A térképen piros és sárga pontok jelzik az elérhető meteorológiai állomásokat.

Mozgassa az egeret a pont fölött, hogy megjelenjen az állomás neve.

Azután kattintson az időjárási megfigyelések és előrejelzések megtekintéséhez.

A térkép megváltoztatása: kattintson a fekete keresztel jelölt zöld gombra ráközelítéshez, a vonallal jelölt zöld gombra távolításhoz, vagy a zöld nyilakra a szomszédos térképek eléréséhez.


METAR-TAF: